Temperature
17 17 17 17 14 12 13 14 15 16 17 19 20 20 20 19 19 20 21 21 22 21 18 17 16 16 16 16 16 16 16 16 16 16 16 16 15 15 15 15 14 14 14 14 14 14 13 14 14
16 16 17 16 12 12 13 13 14 16 18 20 21 21 20 21 21 21 21 21 21 20 19 17 16 16 16 16 16 16 16 16 16 16 16 16 16 16 15 15 15 14 14 14 14 14 13 13 13
15 16 16 12 11 12 14 14 14 17 19 19 20 21 21 21 21 21 21 21 20 20 19 17 16 16 17 17 17 17 17 17 17 17 16 16 16 16 16 15 15 14 14 14 14 14 13 13 13
15 15 14 11 12 12 14 16 15 16 19 19 20 20 20 21 21 21 21 21 20 19 19 18 17 17 17 17 17 17 17 17 17 17 17 17 17 16 16 15 15 14 14 14 14 14 14 13 14
14 14 11 11 12 13 13 15 16 16 17 19 19 19 20 21 21 21 21 20 20 19 18 18 17 17 17 17 18 18 18 18 17 17 17 17 17 17 16 16 15 15 14 14 14 14 14 14 14
14 11 10 11 12 13 13 16 16 16 17 18 19 19 21 21 21 21 21 20 19 19 18 17 17 17 17 18 18 18 18 18 18 17 17 17 17 16 16 16 15 15 14 14 14 14 14 14 14
12 9 10 11 13 13 15 16 17 16 16 18 20 19 20 21 21 21 20 19 18 18 18 18 17 17 17 18 18 18 18 18 18 17 17 17 16 16 16 16 15 15 14 14 14 14 14 14 14
13 9 11 10 12 14 15 17 18 18 18 19 20 19 20 21 21 20 19 18 18 17 17 18 18 18 18 18 18 18 18 18 17 17 16 16 16 16 16 15 15 15 14 14 14 14 14 14 14
12 9 9 10 12 14 15 16 18 18 18 19 19 20 20 20 20 19 18 17 17 17 17 17 18 18 18 18 18 18 18 18 17 16 16 16 16 16 15 15 15 15 14 14 14 14 14 14 13
11 9 10 12 13 14 15 16 17 17 17 18 18 19 20 20 19 19 19 18 18 18 18 18 18 18 18 18 18 18 18 18 17 17 16 16 15 15 15 15 15 14 14 14 14 14 13 13 13
10 9 11 13 14 15 15 15 16 16 16 17 17 17 18 18 18 18 19 19 19 19 18 18 18 18 18 18 18 18 18 18 17 17 16 16 15 15 14 14 14 14 14 14 14 13 13 13 13
9 10 12 13 14 15 15 15 15 16 17 17 17 17 17 17 17 18 18 18 18 18 19 18 18 17 17 17 17 17 17 17 17 17 16 16 15 15 14 14 14 14 14 13 13 13 13 12 12
10 11 12 13 14 14 14 14 14 15 17 17 17 17 16 16 16 17 17 17 17 18 18 18 18 18 17 17 17 17 17 17 17 17 16 16 15 15 14 14 14 13 13 13 13 13 12 12 12
10 11 12 13 13 13 13 13 13 15 16 16 17 17 17 17 16 16 16 17 17 18 18 18 18 18 17 17 17 17 16 16 16 16 16 16 15 15 14 14 13 13 13 13 12 12 12 12 12
11 11 11 11 12 13 13 12 11 15 15 16 16 17 17 17 17 17 17 17 17 18 18 18 18 17 17 17 17 16 16 16 16 16 16 15 15 15 14 14 13 13 13 12 12 12 12 12 12
10 10 10 11 11 12 12 11 12 15 15 14 15 16 17 17 17 18 17 17 17 17 17 17 17 17 17 17 17 17 16 16 16 15 15 15 15 15 14 14 13 13 12 12 12 12 12 11 12
9 8 9 11 11 11 11 10 11 14 13 13 14 15 16 16 17 18 18 18 17 17 17 17 17 17 17 17 17 17 16 16 16 15 15 15 15 15 14 14 13 13 12 12 12 11 11 11 11
8 8 9 9 10 10 10 9 10 13 12 12 14 15 15 15 17 17 17 17 17 17 17 17 17 17 18 17 17 17 16 16 16 16 16 15 15 15 14 14 13 13 12 12 11 11 11 11 11
8 8 9 9 10 10 9 9 10 11 11 11 12 14 14 15 16 16 16 17 17 17 17 17 17 17 17 17 17 17 17 17 16 16 16 16 15 15 14 14 13 13 12 12 12 11 11 11 11
8 8 8 9 9 10 8 8 9 9 10 11 12 12 14 14 15 15 16 16 16 16 16 17 17 17 17 17 17 17 17 17 17 17 16 16 16 15 15 14 14 13 13 12 12 11 11 11 11
8 8 8 9 9 8 8 9 9 9 9 10 11 11 12 13 14 15 15 16 16 16 16 16 16 16 16 17 16 16 16 16 16 16 16 16 16 16 15 15 14 14 13 13 12 12 11 11 11
8 9 9 9 8 7 7 8 9 9 8 9 9 10 11 12 13 14 14 15 15 15 16 16 16 16 16 16 16 16 16 15 16 16 16 16 16 16 15 15 15 14 14 13 13 12 12 11 11
8 8 7 7 7 7 6 7 8 8 10 9 9 9 10 11 12 13 13 14 14 15 15 15 15 16 16 16 16 16 16 16 16 16 16 16 16 16 15 15 15 15 14 13 13 12 12 11 11
7 6 6 5 5 6 6 6 8 8 9 9 8 9 10 11 12 12 13 13 14 14 14 14 15 15 15 15 15 15 15 15 15 15 15 15 15 15 15 15 15 15 14 14 13 12 11 11 11
7 6 6 6 5 5 5 5 6 8 8 8 8 9 10 11 11 12 12 12 13 13 13 14 14 14 14 15 15 15 15 15 15 15 15 15 15 15 15 15 15 14 14 13 13 12 11 11 10
7 7 6 7 6 5 5 5 6 7 8 9 9 9 10 10 11 11 11 11 11 12 12 12 13 13 13 14 14 14 14 14 14 14 14 14 15 15 15 14 14 14 13 13 12 11 11 10 9
6 6 6 4 4 5 5 5 6 8 8 8 9 9 10 10 10 10 10 10 10 10 11 11 11 12 12 13 13 13 13 13 14 14 14 13 13 14 14 14 13 13 13 12 11 11 10 9 8
6 5 4 4 5 7 7 6 7 9 9 8 7 8 9 10 9 9 9 9 9 9 10 10 10 10 11 11 12 12 13 13 13 13 13 13 12 12 12 12 12 12 12 11 10 9 9 8 7
5 5 4 3 4 5 7 8 8 8 9 8 7 8 9 9 8 8 8 8 8 8 8 9 9 10 10 10 10 11 11 12 11 12 12 11 11 11 11 11 11 11 10 9 9 8 7 6 5
6 5 4 4 4 3 4 6 8 8 8 7 8 8 8 8 8 7 7 7 8 8 8 8 8 8 9 9 10 10 10 10 10 11 11 10 9 9 9 9 9 9 8 8 7 6 5 5 4
Wind_Speed
5 4 3 4 5 4 4 7 5 5 5 3 3 4 5 7 6 4 2 8 11 12 15 19 20 19 19 19 19 18 17 16 15 14 13 12 11 9 8 7 7 6 7 10 12 13 13 13 13
2 3 5 5 5 3 7 7 7 7 5 7 4 1 2 4 1 4 5 7 12 13 15 18 20 19 19 19 19 18 17 16 15 14 13 11 10 10 9 8 7 8 9 10 13 14 14 13 12
2 4 5 5 6 8 7 7 8 5 7 4 4 2 2 3 3 6 6 10 11 11 14 18 21 20 19 19 18 18 17 16 15 14 12 11 11 10 9 8 9 10 11 13 14 14 13 12 11
4 5 5 4 9 9 8 4 3 6 7 3 3 5 3 2 3 5 9 12 13 9 13 18 20 20 19 18 18 18 17 16 15 14 13 12 11 10 10 9 10 11 12 14 14 13 12 11 9
4 5 4 4 9 7 6 5 3 5 6 5 4 5 4 5 3 9 13 14 13 9 12 17 19 19 18 18 17 17 17 17 16 15 13 12 11 11 11 10 11 11 12 13 12 11 10 9 8
4 5 5 8 10 6 5 5 3 5 5 5 3 3 4 2 5 11 14 14 11 10 10 16 18 18 17 17 17 17 17 17 16 15 14 13 12 12 11 11 10 10 11 10 9 9 8 8 7
5 6 7 7 7 7 6 6 5 6 7 7 4 4 4 2 6 12 13 12 11 9 9 11 15 16 16 16 16 16 16 16 16 15 14 13 12 12 11 11 10 9 9 8 8 7 7 6 6
5 6 6 6 6 7 4 5 5 7 8 4 7 7 7 5 11 12 12 11 11 9 7 8 12 14 14 14 16 16 16 16 16 16 15 14 14 13 11 10 9 8 8 7 7 6 6 6 6
5 4 7 8 8 5 3 4 3 2 3 2 4 4 4 10 15 14 11 10 11 11 8 7 8 11 12 13 14 15 16 16 16 15 16 15 13 12 11 10 8 8 7 7 6 6 7 8 8
5 6 9 6 6 4 1 3 2 2 1 1 1 3 3 14 17 17 15 16 15 16 13 9 8 8 11 12 12 12 13 14 14 13 14 14 13 12 10 10 9 8 7 6 5 6 7 7 7
7 7 5 5 3 2 0 2 2 0 3 3 1 2 5 12 15 15 16 15 15 15 14 13 10 9 9 8 9 10 11 11 12 13 14 14 12 10 9 8 7 6 6 5 5 6 7 7 7
6 5 5 4 2 2 2 2 3 3 5 2 1 1 4 9 13 14 14 14 12 13 15 14 13 9 9 8 8 9 8 9 9 12 15 13 8 7 8 8 7 7 6 6 6 6 7 8 8
6 3 4 3 2 2 2 4 4 7 7 4 2 1 3 5 7 6 6 8 10 13 14 14 13 13 9 7 6 8 8 9 11 13 15 14 9 6 7 7 8 8 7 7 6 7 7 7 7
7 6 4 3 4 3 5 6 5 9 5 4 4 4 3 5 6 5 7 9 12 14 14 13 14 14 12 11 9 7 10 11 12 13 15 16 13 10 8 6 7 8 9 9 8 8 7 6 6
4 4 4 5 5 4 3 9 9 10 5 7 8 8 7 7 7 9 9 9 11 12 13 14 15 15 15 13 11 9 11 13 11 13 16 17 16 13 10 6 6 9 11 10 9 7 7 5 4
5 4 4 4 5 6 6 12 5 8 7 9 9 9 9 9 9 10 10 9 9 10 12 14 14 15 17 15 13 9 11 12 12 14 16 18 18 17 12 7 7 11 12 10 6 5 4 4 4
4 5 6 3 2 3 8 8 6 4 5 9 10 9 8 9 10 10 9 10 10 10 11 13 14 15 17 17 13 10 10 11 12 14 15 17 19 19 14 9 9 13 9 6 6 4 4 4 4
7 5 5 6 1 1 6 8 11 7 6 9 10 10 9 9 11 9 8 9 9 9 10 11 13 14 15 13 11 10 10 10 10 12 14 17 19 20 16 10 11 12 7 7 6 5 3 3 5
7 6 4 3 2 2 6 9 13 10 8 10 11 10 10 10 9 8 8 8 7 7 9 10 11 12 11 10 12 13 14 13 12 13 16 18 18 19 16 9 10 10 10 11 10 6 5 3 4
5 4 3 1 3 3 5 10 12 9 8 9 9 10 10 9 8 7 6 6 6 6 7 8 10 10 11 11 11 10 11 10 12 10 11 16 17 18 16 13 12 12 10 10 11 7 5 3 4
4 5 4 2 3 4 6 9 7 4 3 5 5 6 7 8 9 7 5 5 5 5 6 7 8 9 10 11 8 5 5 4 7 9 11 13 17 18 16 15 13 14 13 13 13 11 10 6 3
6 4 5 3 2 3 4 5 8 5 6 4 6 6 6 6 5 5 5 5 4 5 5 6 7 8 8 9 9 11 12 13 13 12 13 13 15 16 17 15 14 15 13 13 14 11 7 8 5
5 5 5 4 4 1 1 2 9 5 4 5 6 6 7 6 5 5 5 5 5 4 4 4 5 6 6 7 10 12 13 13 9 8 10 12 12 13 14 14 13 14 12 12 12 11 9 6 6
9 7 7 5 4 2 4 5 7 3 3 6 6 7 8 8 7 7 7 7 7 7 6 5 5 5 5 6 8 11 14 13 10 10 12 11 8 9 12 12 12 12 11 11 12 11 11 7 7
5 6 3 2 1 5 2 3 9 6 5 5 5 5 6 8 8 10 11 11 11 11 9 8 7 7 6 6 7 10 13 13 14 13 13 12 10 9 13 12 12 10 10 10 10 10 9 8 9
5 6 6 5 4 3 2 6 8 6 6 3 1 2 5 7 7 8 9 9 10 11 11 10 9 9 8 7 7 8 9 9 9 11 10 11 10 10 11 12 11 10 10 10 9 9 8 7 8
6 4 4 5 2 2 5 6 8 3 1 2 4 6 8 8 8 9 9 9 9 10 11 10 10 10 9 8 7 7 7 8 8 8 8 6 6 6 9 10 11 11 11 11 11 9 9 9 8
5 8 5 5 4 3 5 5 4 2 1 4 6 8 9 9 9 10 9 9 9 9 10 10 9 9 9 8 6 5 5 6 6 5 6 6 7 8 10 11 12 12 12 12 11 11 11 10 9
5 4 5 4 3 4 2 5 5 5 2 3 6 8 8 8 9 9 9 9 10 10 9 10 10 9 8 7 6 4 3 2 3 4 6 7 8 11 12 12 13 13 13 13 13 12 12 12 10
5 6 6 5 4 3 2 7 4 4 2 3 7 8 8 7 8 8 9 9 9 10 10 10 9 8 8 6 4 2 1 2 4 5 7 9 11 11 12 13 13 13 13 13 14 14 12 11 10
Wind_Direction
3 8 66 59 57 57 240 243 236 266 256 256 247 217 189 178 179 208 115 141 137 145 159 158 157 155 154 151 148 144 142 140 137 134 132 130 129 128 128 131 137 141 141 139 139 127 115 107 104
23 47 60 67 114 205 253 237 229 232 261 311 305 275 250 227 181 131 142 160 145 147 156 156 155 154 153 151 149 148 147 145 142 140 138 138 136 134 130 126 126 123 124 125 124 121 112 107 107
80 50 96 103 159 196 228 230 225 272 288 278 301 297 254 271 174 171 174 156 143 145 153 156 155 156 155 153 153 154 153 151 149 147 145 144 142 139 132 121 117 116 116 117 115 114 112 110 109
94 62 66 134 216 217 210 226 204 317 333 339 331 307 285 333 196 172 147 149 142 140 150 157 156 157 157 157 158 159 158 156 154 152 150 148 145 143 137 122 116 115 118 119 117 116 114 113 112
67 96 127 212 233 236 228 246 261 305 310 328 346 288 279 348 89 130 141 150 147 141 148 158 157 158 160 162 163 164 164 161 159 156 154 152 148 143 139 132 126 123 123 122 122 120 117 116 116
76 94 152 218 238 243 236 217 240 269 273 292 260 248 277 32 119 141 147 151 147 144 148 159 158 160 164 167 168 170 170 167 164 161 159 155 149 145 144 142 138 136 132 129 127 125 122 120 116
130 138 186 209 236 249 238 191 204 238 261 250 208 219 277 149 147 145 147 146 145 143 147 155 158 162 167 170 172 175 175 173 171 168 163 156 152 151 151 150 149 146 141 135 132 130 126 118 108
147 141 184 208 216 245 226 191 209 202 242 228 176 190 238 189 151 142 142 146 150 152 154 155 157 161 168 173 176 178 178 176 175 173 166 159 156 157 159 159 158 153 148 142 138 134 122 106 97
112 135 200 203 196 230 220 210 239 227 237 256 204 230 268 141 149 147 149 158 167 172 171 164 161 165 168 173 178 178 180 179 178 176 168 162 162 164 166 169 168 161 156 152 147 134 113 97 89
148 193 212 202 190 188 201 209 271 348 296 301 321 347 89 147 161 164 169 175 181 186 186 180 174 170 169 176 177 177 177 179 179 175 167 165 168 171 171 177 178 170 164 159 149 125 109 104 98
180 203 204 226 213 193 221 298 322 312 258 221 248 321 138 164 173 179 182 185 188 189 192 191 186 179 176 176 173 175 175 175 176 175 171 170 171 173 171 174 179 174 161 139 122 105 106 111 114
187 223 207 215 208 195 214 278 294 219 234 192 242 316 152 180 187 192 193 193 192 194 199 198 194 189 187 182 179 178 177 178 177 179 176 171 169 171 172 175 177 170 158 144 128 119 116 114 117
205 228 212 236 271 249 229 234 250 252 252 280 307 101 152 193 215 219 215 206 202 205 204 204 200 199 193 188 187 188 188 188 187 185 185 181 177 177 178 180 179 176 168 158 145 135 127 121 118
205 214 257 263 248 241 240 256 231 255 250 253 266 260 229 230 228 220 210 208 209 212 211 208 207 204 199 199 197 194 195 195 193 193 191 189 187 184 182 180 182 181 177 169 159 150 138 130 127
162 178 253 243 218 229 222 265 232 243 249 256 259 263 264 245 233 232 224 213 211 213 214 212 211 207 205 205 203 201 200 199 201 201 198 196 194 190 188 184 185 187 178 163 148 137 128 124 122
135 155 224 251 197 202 189 257 251 243 236 255 258 258 261 262 241 236 236 230 222 214 212 214 212 209 209 209 207 205 202 202 206 204 202 201 199 195 190 189 191 183 170 159 147 141 128 132 135
151 183 204 258 209 196 205 254 261 261 236 259 266 263 259 267 267 251 239 233 230 221 217 214 211 210 210 211 209 207 203 206 207 205 205 204 202 198 193 193 188 175 167 163 161 150 144 151 149
179 170 181 216 291 228 241 264 279 279 257 261 269 271 266 261 263 261 249 237 232 228 224 220 216 215 212 209 208 207 208 211 208 209 210 204 202 198 194 191 182 173 167 168 164 150 128 136 144
151 154 183 228 312 303 263 273 275 272 262 261 265 267 267 264 262 255 249 249 241 235 229 226 221 219 210 204 208 211 216 215 214 214 211 206 201 196 194 191 180 179 182 180 168 146 139 134 143
134 144 171 293 359 353 303 281 271 262 248 246 257 267 271 276 283 273 258 250 238 234 230 230 227 224 213 209 209 210 213 216 216 213 208 205 202 197 196 191 188 186 181 175 175 158 146 144 167
176 163 169 192 356 35 337 300 289 306 309 299 290 284 288 283 289 296 291 272 261 248 238 236 231 229 222 216 208 199 195 201 204 208 210 207 202 200 198 193 188 187 184 186 185 178 162 159 176
192 172 150 131 70 331 19 316 296 321 329 344 342 340 326 317 307 306 310 302 283 268 260 249 245 239 232 219 208 204 209 215 215 213 213 206 201 200 199 194 191 188 189 188 188 181 170 153 162
137 107 102 100 114 343 342 221 287 338 354 349 343 347 343 340 342 340 336 325 322 316 307 287 273 261 250 231 218 214 220 223 219 210 207 205 201 199 198 193 192 190 190 187 180 176 173 166 160
122 87 70 56 71 270 220 190 280 287 281 309 325 343 354 4 13 9 3 2 356 350 342 328 309 286 270 248 232 223 224 222 213 208 209 206 199 196 195 191 191 189 186 181 178 175 172 163 151
114 110 79 14 1 247 188 206 251 263 272 274 298 336 358 10 13 9 4 359 353 348 342 334 322 304 292 269 248 235 231 225 219 214 213 206 200 200 197 190 188 184 178 170 163 162 162 154 150
152 143 161 190 215 268 183 235 255 267 287 279 280 339 2 7 6 2 353 346 339 335 333 330 321 307 298 284 267 254 241 230 227 219 213 209 208 203 186 181 175 167 159 156 152 147 143 136 135
128 130 132 123 112 278 259 271 299 265 340 360 2 3 357 355 354 348 341 336 330 326 322 319 314 307 301 290 276 262 248 233 226 216 205 198 189 170 162 160 154 148 145 143 139 135 131 129 123
127 136 114 133 162 253 288 268 242 228 321 354 354 347 340 344 344 341 336 330 326 319 315 315 312 304 300 296 281 268 252 237 219 195 185 171 153 141 143 143 141 138 137 136 131 129 126 122 119
118 112 111 113 150 168 267 280 222 200 206 329 323 322 326 329 330 330 328 324 321 322 322 322 321 317 312 304 292 278 265 226 175 164 158 145 136 138 140 138 136 135 134 133 129 127 125 122 119
144 154 146 150 188 169 196 270 283 219 252 298 307 314 324 327 326 326 326 327 330 332 333 333 330 328 324 322 324 326 28 109 119 122 123 126 129 132 133 132 130 129 128 127 126 125 123 123 121
Height
1514 1515 1517 1519 1523 1534 1534 1525 1518 1513 1509 1506 1505 1504 1503 1504 1508 1509 1502 1501 1505 1508 1511 1514 1518 1521 1524 1527 1529 1531 1533 1535 1536 1537 1537 1538 1538 1538 1539 1539 1540 1541 1543 1545 1546 1548 1549 1550 1550
1511 1514 1517 1518 1528 1537 1532 1520 1515 1510 1507 1504 1503 1502 1501 1500 1500 1500 1499 1501 1505 1509 1511 1514 1518 1521 1524 1527 1529 1531 1533 1534 1535 1536 1537 1537 1537 1538 1539 1540 1541 1542 1544 1545 1547 1549 1550 1551 1551
1509 1512 1516 1519 1528 1530 1522 1512 1510 1507 1505 1504 1503 1501 1501 1500 1500 1499 1500 1502 1506 1509 1512 1515 1518 1521 1524 1527 1529 1531 1533 1534 1535 1536 1536 1537 1538 1538 1539 1540 1541 1543 1544 1546 1548 1550 1551 1552 1552
1508 1511 1514 1521 1522 1516 1511 1506 1506 1506 1504 1504 1504 1502 1501 1500 1500 1501 1502 1504 1507 1510 1513 1516 1519 1521 1524 1527 1529 1531 1532 1533 1535 1536 1537 1537 1538 1539 1540 1541 1542 1544 1545 1547 1549 1551 1552 1553 1553
1506 1508 1516 1520 1516 1509 1506 1505 1505 1505 1505 1504 1505 1503 1500 1501 1501 1502 1503 1505 1507 1510 1513 1516 1519 1522 1524 1526 1529 1531 1532 1533 1535 1536 1537 1538 1539 1540 1541 1542 1543 1545 1547 1548 1550 1552 1552 1553 1554
1504 1506 1518 1518 1510 1504 1503 1503 1504 1504 1504 1504 1504 1502 1500 1500 1501 1503 1505 1506 1509 1511 1514 1517 1520 1522 1524 1526 1528 1530 1532 1533 1535 1536 1538 1539 1540 1541 1542 1543 1544 1546 1547 1549 1551 1552 1553 1553 1554
1502 1507 1511 1511 1506 1504 1500 1500 1502 1501 1501 1502 1503 1502 1499 1500 1501 1503 1505 1507 1509 1512 1514 1517 1519 1522 1524 1526 1528 1530 1532 1533 1535 1536 1538 1539 1540 1542 1543 1544 1545 1547 1548 1550 1551 1552 1553 1554 1554
1498 1503 1507 1508 1505 1501 1497 1497 1497 1498 1498 1499 1500 1500 1498 1499 1500 1502 1505 1508 1510 1512 1514 1517 1519 1521 1523 1526 1528 1530 1531 1533 1534 1536 1538 1539 1541 1542 1543 1544 1546 1547 1548 1550 1551 1552 1553 1554 1555
1497 1505 1505 1502 1500 1497 1495 1495 1495 1495 1496 1496 1497 1498 1498 1498 1499 1501 1504 1507 1509 1511 1513 1516 1518 1520 1523 1525 1527 1529 1531 1532 1534 1535 1537 1539 1540 1542 1543 1545 1546 1547 1549 1550 1551 1552 1553 1554 1555
1495 1500 1497 1493 1493 1493 1493 1493 1494 1494 1494 1494 1495 1495 1495 1496 1498 1499 1501 1503 1506 1508 1511 1514 1517 1519 1522 1524 1526 1527 1529 1531 1532 1534 1536 1538 1540 1541 1543 1544 1546 1547 1548 1550 1551 1552 1553 1554 1555
1491 1493 1491 1490 1490 1491 1492 1492 1493 1493 1494 1493 1494 1494 1493 1495 1497 1498 1500 1502 1505 1507 1510 1512 1515 1518 1520 1522 1524 1526 1528 1529 1531 1533 1535 1536 1538 1540 1542 1543 1545 1546 1547 1549 1550 1551 1552 1553 1554
1489 1488 1488 1488 1489 1490 1491 1491 1492 1492 1493 1493 1493 1493 1493 1494 1496 1498 1500 1502 1504 1506 1509 1511 1514 1516 1518 1520 1522 1524 1526 1527 1529 1531 1533 1535 1536 1538 1540 1542 1544 1545 1547 1548 1549 1551 1552 1553 1553
1487 1486 1486 1487 1488 1488 1489 1490 1490 1489 1491 1492 1493 1494 1494 1495 1496 1498 1500 1502 1503 1505 1507 1509 1512 1514 1516 1518 1519 1521 1523 1525 1527 1529 1530 1532 1534 1536 1538 1540 1542 1544 1545 1547 1548 1549 1551 1552 1552
1483 1484 1485 1485 1486 1487 1487 1487 1488 1485 1488 1489 1490 1492 1494 1495 1496 1497 1498 1500 1501 1503 1505 1507 1509 1511 1513 1515 1517 1518 1521 1523 1525 1526 1528 1530 1532 1534 1536 1538 1540 1541 1543 1545 1546 1548 1549 1550 1551
1481 1484 1484 1483 1484 1484 1486 1485 1483 1482 1485 1485 1486 1488 1490 1492 1494 1495 1496 1498 1499 1501 1502 1504 1506 1508 1510 1512 1514 1515 1517 1519 1521 1523 1525 1526 1528 1530 1533 1535 1537 1539 1541 1542 1544 1545 1547 1548 1549
1480 1484 1487 1482 1481 1482 1488 1484 1480 1479 1480 1480 1482 1483 1485 1487 1489 1491 1493 1494 1496 1497 1499 1501 1502 1504 1506 1508 1510 1511 1513 1515 1517 1519 1521 1523 1525 1527 1529 1531 1533 1536 1538 1539 1541 1543 1544 1545 1546
1482 1487 1486 1483 1480 1480 1483 1481 1477 1476 1476 1476 1477 1478 1479 1481 1483 1486 1488 1489 1491 1492 1494 1496 1497 1499 1501 1503 1505 1507 1509 1511 1513 1515 1517 1519 1520 1522 1525 1527 1530 1532 1534 1536 1538 1540 1541 1542 1544
1483 1484 1484 1484 1480 1480 1481 1480 1475 1473 1474 1473 1472 1473 1474 1475 1477 1479 1481 1483 1485 1486 1488 1490 1492 1493 1496 1497 1499 1501 1503 1505 1508 1510 1512 1514 1516 1518 1520 1522 1525 1528 1530 1532 1534 1536 1538 1539 1540
1478 1481 1483 1482 1480 1481 1480 1479 1472 1469 1470 1469 1468 1468 1468 1469 1471 1473 1475 1476 1478 1479 1481 1483 1485 1487 1489 1491 1492 1494 1496 1498 1501 1503 1506 1508 1510 1513 1515 1517 1520 1522 1524 1527 1529 1532 1533 1535 1536
1477 1481 1483 1482 1480 1481 1481 1477 1468 1464 1464 1463 1463 1463 1463 1464 1465 1466 1468 1469 1471 1473 1474 1476 1478 1480 1482 1484 1486 1487 1489 1491 1494 1497 1499 1502 1505 1507 1509 1511 1513 1516 1519 1521 1524 1526 1528 1530 1532
1476 1480 1482 1482 1482 1484 1483 1474 1467 1462 1461 1460 1460 1460 1460 1459 1459 1460 1461 1463 1464 1466 1468 1470 1472 1474 1476 1477 1479 1480 1482 1484 1486 1489 1491 1494 1498 1500 1503 1505 1507 1510 1512 1514 1517 1520 1522 1524 1526
1476 1477 1479 1482 1486 1490 1489 1487 1470 1466 1463 1460 1460 1459 1457 1457 1456 1457 1457 1458 1459 1461 1462 1464 1466 1467 1469 1471 1472 1473 1474 1475 1477 1481 1484 1487 1490 1492 1496 1498 1500 1503 1505 1507 1510 1513 1515 1518 1520
1475 1477 1481 1485 1488 1492 1492 1490 1474 1468 1463 1462 1460 1459 1457 1455 1455 1455 1455 1455 1456 1457 1458 1459 1460 1462 1463 1464 1465 1466 1467 1468 1471 1473 1476 1479 1481 1484 1487 1490 1493 1495 1498 1500 1503 1506 1508 1511 1513
1475 1482 1488 1493 1493 1494 1491 1492 1479 1471 1465 1463 1461 1459 1456 1455 1454 1454 1454 1454 1454 1455 1455 1455 1456 1457 1457 1458 1458 1459 1460 1461 1463 1464 1467 1470 1472 1475 1478 1482 1485 1488 1490 1493 1496 1498 1501 1504 1506
1475 1483 1491 1494 1501 1496 1493 1493 1480 1467 1464 1463 1461 1459 1457 1455 1454 1454 1453 1452 1452 1452 1452 1452 1451 1451 1452 1452 1452 1452 1453 1454 1455 1456 1459 1461 1463 1466 1469 1473 1476 1480 1483 1486 1489 1491 1494 1497 1499
1475 1479 1488 1491 1493 1494 1494 1492 1475 1465 1462 1461 1460 1459 1457 1455 1454 1453 1453 1451 1450 1449 1448 1447 1446 1446 1446 1446 1445 1446 1446 1447 1447 1449 1451 1453 1455 1458 1461 1465 1468 1472 1475 1478 1482 1485 1488 1490 1493
1477 1481 1484 1494 1498 1497 1490 1484 1472 1462 1461 1460 1459 1457 1456 1454 1453 1452 1451 1449 1447 1446 1444 1442 1441 1440 1439 1439 1439 1439 1439 1440 1441 1442 1443 1445 1447 1450 1454 1457 1461 1465 1468 1472 1475 1478 1481 1484 1486
1474 1481 1489 1495 1492 1484 1479 1479 1472 1463 1462 1460 1459 1457 1455 1453 1452 1450 1448 1446 1444 1442 1440 1438 1436 1434 1433 1432 1432 1432 1432 1433 1434 1435 1436 1438 1441 1443 1447 1450 1454 1458 1462 1465 1469 1472 1475 1478 1481
1479 1483 1487 1494 1492 1491 1479 1471 1462 1461 1460 1460 1458 1456 1455 1453 1451 1448 1446 1443 1441 1438 1435 1433 1430 1428 1427 1426 1425 1425 1426 1426 1428 1429 1431 1433 1435 1438 1441 1445 1448 1452 1456 1460 1464 1467 1470 1473 1476
1474 1479 1485 1490 1495 1497 1496 1480 1458 1459 1459 1459 1457 1455 1453 1451 1449 1446 1443 1440 1437 1434 1431 1428 1426 1423 1422 1421 1420 1420 1420 1421 1422 1424 1425 1428 1430 1433 1437 1441 1444 1448 1452 1456 1459 1463 1466 1470 1473